| time (UTC) | temp F | wind direction | speed knots | gust knots | rain 1hr in | rain 24hr in | rain mn in | humidity % | barometer mb |
| 20260507052307 | 73 | 21 | 0.0 | 1.7 | 0.00 | 0.00 | 0.00 | 29 | 1017.1 |
| 20260507051805 | 73 | 352 | 0.9 | 1.7 | 0.00 | 0.00 | 0.00 | 29 | 1017.0 |
| 20260507051302 | 73 | 2 | 1.7 | 2.6 | 0.00 | 0.00 | 0.00 | 29 | 1017.0 |
| 20260507050759 | 73 | 11 | 1.7 | 1.7 | 0.00 | 0.00 | 0.00 | 29 | 1017.0 |
| 20260507050255 | 73 | 15 | 0.9 | 1.7 | 0.00 | 0.00 | 0.00 | 29 | 1017.1 |
| 20260507045752 | 74 | 358 | 0.9 | 1.7 | 0.00 | 0.00 | 0.00 | 28 | 1017.2 |
| 20260507045249 | 74 | 352 | 0.9 | 1.7 | 0.00 | 0.00 | 0.00 | 28 | 1017.0 |
| 20260507044746 | 74 | 352 | 0.0 | 1.7 | 0.00 | 0.00 | 0.00 | 28 | 1016.6 |
| 20260507044242 | 74 | 352 | 0.9 | 1.7 | 0.00 | 0.00 | 0.00 | 28 | 1017.0 |
| 20260507043738 | 74 | 352 | 0.0 | 0.9 | 0.00 | 0.00 | 0.00 | 28 | 1016.9 |
| 20260507043235 | 75 | 344 | 0.0 | 0.9 | 0.00 | 0.00 | 0.00 | 28 | 1016.7 |
| 20260507042731 | 75 | 337 | 0.9 | 1.7 | 0.00 | 0.00 | 0.00 | 28 | 1016.6 |
| 20260507042226 | 75 | 337 | 0.9 | 1.7 | 0.00 | 0.00 | 0.00 | 28 | 1016.7 |
| 20260507041724 | 75 | 352 | 0.9 | 2.6 | 0.00 | 0.00 | 0.00 | 28 | 1016.7 |
| 20260507041220 | 76 | 311 | 1.7 | 1.7 | 0.00 | 0.00 | 0.00 | 27 | 1016.5 |
| 20260507040717 | 76 | 298 | 0.9 | 1.7 | 0.00 | 0.00 | 0.00 | 26 | 1016.7 |
| 20260507040213 | 76 | 332 | 0.0 | 1.7 | 0.00 | 0.00 | 0.00 | 26 | 1016.3 |
| 20260507035710 | 76 | 332 | 0.0 | 0.9 | 0.00 | 0.00 | 0.00 | 26 | 1016.5 |
| 20260507035205 | 77 | 329 | 0.0 | 2.6 | 0.00 | 0.00 | 0.00 | 26 | 1016.2 |
| 20260507034702 | 77 | 265 | 2.6 | 4.3 | 0.00 | 0.00 | 0.00 | 26 | 1016.4 |
| 20260507034200 | 77 | 296 | 1.7 | 2.6 | 0.00 | 0.00 | 0.00 | 26 | 1016.3 |
| 20260507033658 | 77 | 287 | 1.7 | 2.6 | 0.00 | 0.00 | 0.00 | 26 | 1016.4 |
| 20260507033155 | 77 | 286 | 1.7 | 2.6 | 0.00 | 0.00 | 0.00 | 26 | 1016.0 |
| 20260507032653 | 77 | 311 | 0.0 | 2.6 | 0.00 | 0.00 | 0.00 | 25 | 1016.2 |
| 20260507032148 | 77 | 243 | 0.9 | 2.6 | 0.00 | 0.00 | 0.00 | 25 | 1016.1 |
| 20260507031645 | 78 | 269 | 0.9 | 2.6 | 0.00 | 0.00 | 0.00 | 25 | 1016.0 |
| 20260507031142 | 78 | 256 | 2.6 | 2.6 | 0.00 | 0.00 | 0.00 | 25 | 1015.8 |
| 20260507030639 | 78 | 262 | 1.7 | 5.2 | 0.00 | 0.00 | 0.00 | 25 | 1015.7 |
| 20260507030137 | 78 | 238 | 2.6 | 4.3 | 0.00 | 0.00 | 0.00 | 25 | 1015.5 |
| 20260507025634 | 78 | 277 | 0.9 | 3.5 | 0.00 | 0.00 | 0.00 | 25 | 1015.5 |
| 20260507025130 | 78 | 279 | 2.6 | 6.1 | 0.00 | 0.00 | 0.00 | 25 | 1015.5 |
| 20260507024628 | 78 | 246 | 3.5 | 6.1 | 0.00 | 0.00 | 0.00 | 25 | 1015.2 |
| 20260507024125 | 79 | 266 | 2.6 | 4.3 | 0.00 | 0.00 | 0.00 | 25 | 1015.5 |
| 20260507023621 | 79 | 264 | 7.0 | 7.0 | 0.00 | 0.00 | 0.00 | 25 | 1015.1 |
| 20260507023119 | 79 | 287 | 3.5 | 5.2 | 0.00 | 0.00 | 0.00 | 25 | 1015.3 |
| 20260507022615 | 79 | 234 | 3.5 | 5.2 | 0.00 | 0.00 | 0.00 | 25 | 1015.2 |
| 20260507022110 | 79 | 235 | 2.6 | 6.1 | 0.00 | 0.00 | 0.00 | 25 | 1015.0 |
| 20260507021607 | 79 | 275 | 1.7 | 4.3 | 0.00 | 0.00 | 0.00 | 25 | 1015.2 |
| 20260507021103 | 80 | 235 | 1.7 | 7.0 | 0.00 | 0.00 | 0.00 | 24 | 1015.1 |
| 20260507020602 | 80 | 167 | 2.6 | 5.2 | 0.00 | 0.00 | 0.00 | 24 | 1015.6 |
| 20260507020057 | 80 | 231 | 3.5 | 7.8 | 0.00 | 0.00 | 0.00 | 24 | 1015.0 |
| 20260507015556 | 80 | 257 | 3.5 | 6.1 | 0.00 | 0.00 | 0.00 | 24 | 1015.1 |
| 20260507015053 | 80 | 357 | 1.7 | 6.1 | 0.00 | 0.00 | 0.00 | 24 | 1014.8 |
| 20260507014550 | 81 | 262 | 4.3 | 4.3 | 0.00 | 0.00 | 0.00 | 23 | 1015.0 |
| 20260507014045 | 81 | 267 | 1.7 | 4.3 | 0.00 | 0.00 | 0.00 | 23 | 1015.1 |
| 20260507013542 | 81 | 293 | 2.6 | 7.0 | 0.00 | 0.00 | 0.00 | 23 | 1014.8 |
| 20260507013039 | 81 | 270 | 1.7 | 6.1 | 0.00 | 0.00 | 0.00 | 23 | 1015.0 |
| 20260507012537 | 81 | 236 | 4.3 | 6.1 | 0.00 | 0.00 | 0.00 | 23 | 1014.8 |
| 20260507012032 | 81 | 281 | 5.2 | 9.6 | 0.00 | 0.00 | 0.00 | 23 | 1014.9 |
| 20260507011530 | 81 | 253 | 3.5 | 7.8 | 0.00 | 0.00 | 0.00 | 24 | 1014.8 |
| 20260507011026 | 82 | 268 | 4.3 | 5.2 | 0.00 | 0.00 | 0.00 | 23 | 1014.9 |
| 20260507010521 | 81 | 263 | 7.8 | 9.6 | 0.00 | 0.00 | 0.00 | 23 | 1015.1 |
| 20260507010017 | 81 | 213 | 1.7 | 8.7 | 0.00 | 0.00 | 0.00 | 24 | 1015.0 |
| 20260507005515 | 82 | 254 | 5.2 | 11.3 | 0.00 | 0.00 | 0.00 | 23 | 1014.9 |
| 20260507005011 | 82 | 290 | 5.2 | 5.2 | 0.00 | 0.00 | 0.00 | 23 | 1014.9 |
| 20260507004508 | 82 | 262 | 6.1 | 7.8 | 0.00 | 0.00 | 0.00 | 23 | 1014.8 |
| 20260507004006 | 82 | 281 | 6.1 | 8.7 | 0.00 | 0.00 | 0.00 | 23 | 1015.1 |
| 20260507003501 | 82 | 262 | 0.9 | 4.3 | 0.00 | 0.00 | 0.00 | 23 | 1015.0 |
| 20260507002955 | 82 | 260 | 4.3 | 12.2 | 0.00 | 0.00 | 0.00 | 23 | 1015.0 |
| 20260507002453 | 82 | 272 | 5.2 | 10.4 | 0.00 | 0.00 | 0.00 | 23 | 1014.9 |
| 20260507001950 | 82 | 253 | 0.9 | 2.6 | 0.00 | 0.00 | 0.00 | 23 | 1014.9 |
| 20260507001446 | 81 | 217 | 1.7 | 6.1 | 0.00 | 0.00 | 0.00 | 23 | 1014.7 |
| 20260507000944 | 82 | 179 | 0.0 | 4.3 | 0.00 | 0.00 | 0.00 | 23 | 1014.8 |
| 20260507000439 | 82 | 249 | 5.2 | 7.8 | 0.00 | 0.00 | 0.00 | 23 | 1014.7 |
| 20260506235935 | 81 | 269 | 7.8 | 11.3 | 0.00 | 0.00 | 0.00 | 23 | 1014.9 |
| 20260506235432 | 82 | 269 | 9.6 | 10.4 | 0.00 | 0.00 | 0.00 | 23 | 1014.7 |
| 20260506234927 | 83 | 270 | 5.2 | 5.2 | 0.00 | 0.00 | 0.00 | 23 | 1014.9 |
| 20260506234426 | 81 | 286 | 1.7 | 6.1 | 0.00 | 0.00 | 0.00 | 23 | 1014.7 |
| 20260506233923 | 82 | 257 | 7.0 | 9.6 | 0.00 | 0.00 | 0.00 | 23 | 1014.7 |
| 20260506233420 | 83 | 280 | 5.2 | 6.1 | 0.00 | 0.00 | 0.00 | 22 | 1015.0 |
| 20260506232916 | 82 | 293 | 2.6 | 4.3 | 0.00 | 0.00 | 0.00 | 23 | 1015.0 |
| 20260506232413 | 81 | 222 | 5.2 | 7.8 | 0.00 | 0.00 | 0.00 | 23 | 1014.9 |
| 20260506231908 | 82 | 274 | 4.3 | 8.7 | 0.00 | 0.00 | 0.00 | 23 | 1015.1 |
| 20260506231406 | 82 | 221 | 2.6 | 6.1 | 0.00 | 0.00 | 0.00 | 23 | 1015.2 |
| 20260506230903 | 81 | 305 | 5.2 | 10.4 | 0.00 | 0.00 | 0.00 | 23 | 1015.1 |
| 20260506230400 | 80 | 289 | 1.7 | 8.7 | 0.00 | 0.00 | 0.00 | 23 | 1015.2 |
| 20260506225856 | 80 | 93 | 4.3 | 7.8 | 0.00 | 0.00 | 0.00 | 23 | 1015.3 |
| 20260506225353 | 81 | 333 | 5.2 | 7.8 | 0.00 | 0.00 | 0.00 | 23 | 1015.1 |
| 20260506224850 | 82 | 283 | 6.1 | 8.7 | 0.00 | 0.00 | 0.00 | 23 | 1015.3 |
| 20260506224348 | 81 | 3 | 3.5 | 5.2 | 0.00 | 0.00 | 0.00 | 23 | 1015.5 |
| 20260506223844 | 81 | 230 | 5.2 | 8.7 | 0.00 | 0.00 | 0.00 | 23 | 1015.3 |
| 20260506223339 | 81 | 251 | 6.1 | 14.8 | 0.00 | 0.00 | 0.00 | 23 | 1015.6 |
| 20260506222836 | 81 | 268 | 7.0 | 13.0 | 0.00 | 0.00 | 0.00 | 23 | 1015.6 |
| 20260506222332 | 80 | 346 | 7.0 | 10.4 | 0.00 | 0.00 | 0.00 | 24 | 1015.7 |
| 20260506221830 | 82 | 317 | 12.2 | 12.2 | 0.00 | 0.00 | 0.00 | 23 | 1015.8 |
| 20260506221327 | 82 | 287 | 1.7 | 4.3 | 0.00 | 0.00 | 0.00 | 23 | 1015.8 |
| 20260506220825 | 80 | 173 | 7.0 | 11.3 | 0.00 | 0.00 | 0.00 | 24 | 1015.8 |
| 20260506220320 | 81 | 333 | 1.7 | 7.8 | 0.00 | 0.00 | 0.00 | 24 | 1016.0 |
| 20260506215817 | 80 | 222 | 2.6 | 7.0 | 0.00 | 0.00 | 0.00 | 24 | 1016.0 |
| 20260506215313 | 80 | 115 | 1.7 | 7.8 | 0.00 | 0.00 | 0.00 | 24 | 1016.0 |
| 20260506214809 | 80 | 262 | 1.7 | 6.1 | 0.00 | 0.00 | 0.00 | 24 | 1016.2 |
| 20260506214306 | 79 | 157 | 7.0 | 9.6 | 0.00 | 0.00 | 0.00 | 24 | 1016.2 |
| 20260506213804 | 80 | 160 | 1.7 | 5.2 | 0.00 | 0.00 | 0.00 | 24 | 1016.2 |
| 20260506213300 | 80 | 140 | 2.6 | 6.1 | 0.00 | 0.00 | 0.00 | 24 | 1016.4 |
| 20260506212758 | 80 | 306 | 4.3 | 7.0 | 0.00 | 0.00 | 0.00 | 24 | 1016.7 |
| 20260506212254 | 79 | 313 | 6.1 | 11.3 | 0.00 | 0.00 | 0.00 | 25 | 1016.3 |
| 20260506211749 | 80 | 142 | 3.5 | 5.2 | 0.00 | 0.00 | 0.00 | 24 | 1016.6 |
| 20260506211246 | 80 | 39 | 2.6 | 4.3 | 0.00 | 0.00 | 0.00 | 24 | 1016.9 |
| 20260506210743 | 78 | 317 | 5.2 | 7.8 | 0.00 | 0.00 | 0.00 | 25 | 1016.9 |
| 20260506210239 | 78 | 316 | 3.5 | 7.8 | 0.00 | 0.00 | 0.00 | 25 | 1017.0 |
| 20260506205736 | 78 | 258 | 8.7 | 10.4 | 0.00 | 0.00 | 0.00 | 25 | 1016.9 |
| 20260506205232 | 79 | 184 | 6.1 | 7.0 | 0.00 | 0.00 | 0.00 | 25 | 1017.1 |
| 20260506204729 | 77 | 101 | 0.0 | 6.1 | 0.00 | 0.00 | 0.00 | 26 | 1017.2 |
| 20260506204226 | 77 | 316 | 3.5 | 17.4 | 0.00 | 0.00 | 0.00 | 26 | 1017.2 |
| 20260506203725 | 79 | 340 | 1.7 | 3.5 | 0.00 | 0.00 | 0.00 | 25 | 1017.2 |
| 20260506203221 | 77 | 166 | 2.6 | 6.1 | 0.00 | 0.00 | 0.00 | 26 | 1017.4 |
| 20260506202719 | 79 | 185 | 4.3 | 7.0 | 0.00 | 0.00 | 0.00 | 25 | 1017.4 |
| 20260506202215 | 78 | 223 | 7.0 | 7.0 | 0.00 | 0.00 | 0.00 | 26 | 1017.5 |
| 20260506201712 | 78 | 278 | 5.2 | 9.6 | 0.00 | 0.00 | 0.00 | 26 | 1017.5 |
| 20260506201209 | 77 | 328 | 4.3 | 11.3 | 0.00 | 0.00 | 0.00 | 26 | 1017.3 |
| 20260506200706 | 76 | 4 | 3.5 | 7.8 | 0.00 | 0.00 | 0.00 | 26 | 1017.5 |
| 20260506200203 | 78 | 307 | 0.0 | 6.1 | 0.00 | 0.00 | 0.00 | 26 | 1017.7 |
| 20260506195659 | 78 | 181 | 6.1 | 6.1 | 0.00 | 0.00 | 0.00 | 25 | 1018.0 |
| 20260506195155 | 78 | 240 | 4.3 | 7.8 | 0.00 | 0.00 | 0.00 | 26 | 1017.6 |
| 20260506194653 | 75 | 9 | 3.5 | 7.8 | 0.00 | 0.00 | 0.00 | 27 | 1017.7 |
| 20260506194149 | 75 | 285 | 4.3 | 8.7 | 0.00 | 0.00 | 0.00 | 27 | 1017.9 |
| 20260506193647 | 76 | 267 | 7.0 | 10.4 | 0.00 | 0.00 | 0.00 | 27 | 1018.0 |
| 20260506193144 | 76 | 270 | 6.1 | 8.7 | 0.00 | 0.00 | 0.00 | 27 | 1017.9 |
| 20260506192640 | 75 | 11 | 3.5 | 6.1 | 0.00 | 0.00 | 0.00 | 27 | 1017.6 |
| 20260506192136 | 75 | 170 | 2.6 | 8.7 | 0.00 | 0.00 | 0.00 | 27 | 1018.1 |
| 20260506191634 | 76 | 245 | 6.1 | 10.4 | 0.00 | 0.00 | 0.00 | 26 | 1018.0 |
| 20260506191130 | 75 | 288 | 3.5 | 5.2 | 0.00 | 0.00 | 0.00 | 27 | 1018.2 |
| 20260506190627 | 75 | 229 | 2.6 | 6.1 | 0.00 | 0.00 | 0.00 | 28 | 1018.3 |
| 20260506190124 | 74 | 53 | 1.7 | 4.3 | 0.00 | 0.00 | 0.00 | 28 | 1018.2 |
| 20260506185621 | 75 | 311 | 7.8 | 8.7 | 0.00 | 0.00 | 0.00 | 28 | 1018.3 |
| 20260506185117 | 75 | 230 | 4.3 | 7.8 | 0.00 | 0.00 | 0.00 | 27 | 1018.3 |
| 20260506184614 | 75 | 9 | 5.2 | 11.3 | 0.00 | 0.00 | 0.00 | 28 | 1018.3 |
| 20260506184112 | 74 | 300 | 6.1 | 13.9 | 0.00 | 0.00 | 0.00 | 28 | 1018.3 |
| 20260506183608 | 75 | 267 | 6.1 | 6.1 | 0.00 | 0.00 | 0.00 | 28 | 1018.5 |
| 20260506183104 | 75 | 307 | 0.0 | 4.3 | 0.00 | 0.00 | 0.00 | 29 | 1018.4 |
| 20260506182602 | 75 | 119 | 1.7 | 7.8 | 0.00 | 0.00 | 0.00 | 29 | 1018.9 |
| 20260506182059 | 74 | 29 | 6.1 | 9.6 | 0.00 | 0.00 | 0.00 | 30 | 1018.8 |
| 20260506181557 | 73 | 267 | 4.3 | 8.7 | 0.00 | 0.00 | 0.00 | 29 | 1018.7 |
| 20260506181053 | 74 | 272 | 7.8 | 11.3 | 0.00 | 0.00 | 0.00 | 30 | 1018.9 |
| 20260506180550 | 74 | 301 | 6.1 | 9.6 | 0.00 | 0.00 | 0.00 | 30 | 1018.8 |
| 20260506180047 | 74 | 299 | 8.7 | 9.6 | 0.00 | 0.00 | 0.00 | 30 | 1018.8 |
| 20260506175543 | 73 | 288 | 6.1 | 8.7 | 0.00 | 0.00 | 0.00 | 31 | 1019.0 |
| 20260506175039 | 73 | 264 | 4.3 | 7.8 | 0.00 | 0.00 | 0.00 | 30 | 1018.8 |
| 20260506174538 | 74 | 188 | 2.6 | 10.4 | 0.00 | 0.00 | 0.00 | 30 | 1018.9 |
| 20260506174034 | 73 | 242 | 1.7 | 7.0 | 0.00 | 0.00 | 0.00 | 32 | 1019.2 |
| 20260506173532 | 73 | 262 | 1.7 | 5.2 | 0.00 | 0.00 | 0.00 | 32 | 1018.7 |
| 20260506173028 | 72 | 39 | 2.6 | 3.5 | 0.00 | 0.00 | 0.00 | 32 | 1018.9 |
| 20260506172526 | 71 | 333 | 4.3 | 7.0 | 0.00 | 0.00 | 0.00 | 33 | 1019.1 |
| 20260506172022 | 72 | 273 | 4.3 | 9.6 | 0.00 | 0.00 | 0.00 | 32 | 1018.9 |
| 20260506171519 | 72 | 322 | 1.7 | 9.6 | 0.00 | 0.00 | 0.00 | 33 | 1019.1 |
| 20260506171017 | 71 | 288 | 3.5 | 7.8 | 0.00 | 0.00 | 0.00 | 34 | 1018.8 |
| 20260506170514 | 71 | 294 | 5.2 | 11.3 | 0.00 | 0.00 | 0.00 | 33 | 1018.9 |
| 20260506170006 | 71 | 273 | 3.5 | 9.6 | 0.00 | 0.00 | 0.00 | 34 | 1019.2 |
| 20260506165504 | 72 | 169 | 2.6 | 3.5 | 0.00 | 0.00 | 0.00 | 33 | 1019.0 |
| 20260506165000 | 70 | 205 | 2.6 | 7.0 | 0.00 | 0.00 | 0.00 | 35 | 1018.6 |
| 20260506164457 | 71 | 276 | 4.3 | 5.2 | 0.00 | 0.00 | 0.00 | 34 | 1019.0 |
| 20260506163955 | 71 | 256 | 0.9 | 3.5 | 0.00 | 0.00 | 0.00 | 33 | 1018.8 |
| 20260506163449 | 71 | 319 | 6.1 | 7.8 | 0.00 | 0.00 | 0.00 | 34 | 1018.9 |
| 20260506162944 | 70 | 142 | 2.6 | 6.1 | 0.00 | 0.00 | 0.00 | 34 | 1018.8 |
| 20260506162442 | 69 | 202 | 2.6 | 5.2 | 0.00 | 0.00 | 0.00 | 35 | 1018.8 |
| 20260506161934 | 71 | 58 | 0.9 | 2.6 | 0.00 | 0.00 | 0.00 | 34 | 1018.8 |
| 20260506161432 | 69 | 277 | 0.0 | 2.6 | 0.00 | 0.00 | 0.00 | 36 | 1018.7 |
| 20260506160929 | 69 | 260 | 5.2 | 7.0 | 0.00 | 0.00 | 0.00 | 35 | 1018.6 |
| 20260506160426 | 69 | 175 | 0.0 | 6.1 | 0.00 | 0.00 | 0.00 | 35 | 1018.8 |
| 20260506155923 | 68 | 104 | 2.6 | 7.0 | 0.00 | 0.00 | 0.00 | 36 | 1018.7 |
| 20260506155420 | 68 | 169 | 1.7 | 4.3 | 0.00 | 0.00 | 0.00 | 36 | 1018.6 |
| 20260506153543 | 68 | 204 | 1.7 | 4.3 | 0.00 | 0.00 | 0.00 | 37 | 1018.8 |
| 20260506153040 | 68 | 82 | 0.0 | 2.6 | 0.00 | 0.00 | 0.00 | 36 | 1018.7 |
| 20260506152537 | 68 | 223 | 1.7 | 2.6 | 0.00 | 0.00 | 0.00 | 37 | 1018.8 |
| 20260506152035 | 66 | 190 | 0.9 | 2.6 | 0.00 | 0.00 | 0.00 | 38 | 1018.8 |
| 20260506151532 | 67 | 326 | 0.0 | 2.6 | 0.00 | 0.00 | 0.00 | 38 | 1018.7 |
| 20260506151024 | 66 | 144 | 0.0 | 4.3 | 0.00 | 0.00 | 0.00 | 38 | 1018.9 |
| 20260506150520 | 67 | 185 | 2.6 | 4.3 | 0.00 | 0.00 | 0.00 | 38 | 1018.8 |
| 20260506150017 | 67 | 72 | 1.7 | 2.6 | 0.00 | 0.00 | 0.00 | 38 | 1018.8 |
| 20260506145514 | 66 | 106 | 1.7 | 1.7 | 0.00 | 0.00 | 0.00 | 39 | 1018.8 |
| 20260506145011 | 65 | 262 | 0.0 | 3.5 | 0.00 | 0.00 | 0.00 | 40 | 1018.8 |
| 20260506144508 | 64 | 262 | 0.9 | 2.6 | 0.00 | 0.00 | 0.00 | 40 | 1018.7 |
| 20260506144005 | 64 | 299 | 2.6 | 4.3 | 0.00 | 0.00 | 0.00 | 41 | 1018.9 |
| 20260506143502 | 64 | 278 | 2.6 | 3.5 | 0.00 | 0.00 | 0.00 | 40 | 1018.9 |
| 20260506143001 | 64 | 272 | 1.7 | 2.6 | 0.00 | 0.00 | 0.00 | 41 | 1018.6 |
| 20260506142458 | 64 | 352 | 0.0 | 1.7 | 0.00 | 0.00 | 0.00 | 41 | 1018.5 |
| 20260506141956 | 64 | 334 | 2.6 | 3.5 | 0.00 | 0.00 | 0.00 | 41 | 1018.8 |
| 20260506141454 | 65 | 28 | 1.7 | 1.7 | 0.00 | 0.00 | 0.00 | 41 | 1018.6 |
| 20260506140952 | 65 | 352 | 2.6 | 3.5 | 0.00 | 0.00 | 0.00 | 40 | 1018.6 |
| 20260506140449 | 67 | 25 | 2.6 | 3.5 | 0.00 | 0.00 | 0.00 | 40 | 1018.5 |
| 20260506135945 | 65 | 34 | 2.6 | 3.5 | 0.00 | 0.00 | 0.00 | 42 | 1018.5 |
| 20260506135443 | 66 | 52 | 2.6 | 2.6 | 0.00 | 0.00 | 0.00 | 41 | 1018.3 |
| 20260506134938 | 65 | 13 | 1.7 | 1.7 | 0.00 | 0.00 | 0.00 | 43 | 1018.1 |
| 20260506134435 | 64 | 41 | 1.7 | 1.7 | 0.00 | 0.00 | 0.00 | 44 | 1018.2 |
| 20260506133932 | 64 | 37 | 2.6 | 2.6 | 0.00 | 0.00 | 0.00 | 44 | 1018.0 |
| 20260506133429 | 63 | 22 | 1.7 | 2.6 | 0.00 | 0.00 | 0.00 | 45 | 1017.9 |
| 20260506132926 | 62 | 63 | 2.6 | 2.6 | 0.00 | 0.00 | 0.00 | 46 | 1017.9 |
| 20260506132423 | 60 | 57 | 1.7 | 3.5 | 0.00 | 0.00 | 0.00 | 48 | 1017.7 |
| 20260506131920 | 60 | 61 | 2.6 | 4.3 | 0.00 | 0.00 | 0.00 | 48 | 1017.9 |
| 20260506131417 | 59 | 51 | 3.5 | 4.3 | 0.00 | 0.00 | 0.00 | 48 | 1017.7 |
| 20260506130914 | 58 | 33 | 3.5 | 4.3 | 0.00 | 0.00 | 0.00 | 50 | 1017.7 |
| 20260506130410 | 58 | 43 | 3.5 | 3.5 | 0.00 | 0.00 | 0.00 | 50 | 1017.9 |
| 20260506125908 | 59 | 27 | 2.6 | 3.5 | 0.00 | 0.00 | 0.00 | 49 | 1017.6 |
| 20260506125406 | 57 | 21 | 2.6 | 3.5 | 0.00 | 0.00 | 0.00 | 51 | 1017.2 |
| 20260506124904 | 57 | 16 | 2.6 | 3.5 | 0.00 | 0.00 | 0.00 | 53 | 1017.3 |
| 20260506124401 | 57 | 22 | 3.5 | 3.5 | 0.00 | 0.00 | 0.00 | 52 | 1017.2 |
| 20260506123859 | 57 | 14 | 1.7 | 2.6 | 0.00 | 0.00 | 0.00 | 52 | 1017.3 |
| 20260506123357 | 57 | 6 | 1.7 | 1.7 | 0.00 | 0.00 | 0.00 | 52 | 1017.1 |
| 20260506122854 | 57 | 352 | 0.0 | 1.7 | 0.00 | 0.00 | 0.00 | 51 | 1017.1 |
| 20260506122350 | 58 | 345 | 0.9 | 1.7 | 0.00 | 0.00 | 0.00 | 50 | 1016.9 |
| 20260506121849 | 58 | 352 | 0.0 | 0.9 | 0.00 | 0.00 | 0.00 | 49 | 1017.1 |
| 20260506121346 | 59 | 101 | 1.7 | 2.6 | 0.00 | 0.00 | 0.00 | 48 | 1017.0 |
| 20260506120843 | 58 | 78 | 2.6 | 2.6 | 0.00 | 0.00 | 0.00 | 49 | 1017.1 |
| 20260506120340 | 58 | 46 | 2.6 | 3.5 | 0.00 | 0.00 | 0.00 | 50 | 1016.9 |
| 20260506115837 | 57 | 39 | 2.6 | 3.5 | 0.00 | 0.00 | 0.00 | 51 | 1016.8 |
| 20260506115336 | 58 | 82 | 0.9 | 1.7 | 0.00 | 0.00 | 0.00 | 49 | 1017.1 |
| 20260506114834 | 57 | 61 | 0.9 | 1.7 | 0.00 | 0.00 | 0.00 | 50 | 1016.7 |
| 20260506114331 | 58 | 94 | 1.7 | 2.6 | 0.00 | 0.00 | 0.00 | 48 | 1016.9 |
| 20260506113830 | 57 | 178 | 0.9 | 0.9 | 0.00 | 0.00 | 0.00 | 50 | 1016.7 |
| 20260506113326 | 58 | 39 | 2.6 | 2.6 | 0.00 | 0.00 | 0.00 | 49 | 1016.9 |
| 20260506112823 | 58 | 39 | 2.6 | 2.6 | 0.00 | 0.00 | 0.00 | 49 | 1016.7 |
| 20260506112320 | 58 | 60 | 1.7 | 2.6 | 0.00 | 0.00 | 0.00 | 50 | 1017.0 |
| 20260506111818 | 58 | 74 | 1.7 | 2.6 | 0.00 | 0.00 | 0.00 | 50 | 1016.7 |
| 20260506111316 | 58 | 73 | 1.7 | 2.6 | 0.00 | 0.00 | 0.00 | 49 | 1016.7 |
| 20260506110813 | 58 | 13 | 2.6 | 3.5 | 0.00 | 0.00 | 0.00 | 49 | 1016.7 |
| 20260506110310 | 59 | 86 | 2.6 | 2.6 | 0.00 | 0.00 | 0.00 | 48 | 1016.8 |
| 20260506105806 | 59 | 53 | 1.7 | 2.6 | 0.00 | 0.00 | 0.00 | 48 | 1016.6 |
| 20260506105305 | 59 | 42 | 2.6 | 2.6 | 0.00 | 0.00 | 0.00 | 48 | 1016.5 |
| 20260506104801 | 59 | 59 | 1.7 | 1.7 | 0.00 | 0.00 | 0.00 | 48 | 1016.5 |
| 20260506104258 | 60 | 79 | 2.6 | 3.5 | 0.00 | 0.00 | 0.00 | 46 | 1016.5 |
| 20260506103756 | 60 | 65 | 2.6 | 3.5 | 0.00 | 0.00 | 0.00 | 45 | 1016.5 |
| 20260506103253 | 60 | 43 | 2.6 | 2.6 | 0.00 | 0.00 | 0.00 | 45 | 1016.5 |
| 20260506102750 | 61 | 34 | 2.6 | 2.6 | 0.00 | 0.00 | 0.00 | 43 | 1016.6 |
| 20260506102248 | 62 | 45 | 1.7 | 2.6 | 0.00 | 0.00 | 0.00 | 43 | 1016.4 |
| 20260506101745 | 62 | 10 | 3.5 | 3.5 | 0.00 | 0.00 | 0.00 | 43 | 1016.4 |
| 20260506101241 | 61 | 8 | 2.6 | 3.5 | 0.00 | 0.00 | 0.00 | 43 | 1016.6 |
| 20260506100740 | 61 | 358 | 2.6 | 3.5 | 0.00 | 0.00 | 0.00 | 43 | 1016.2 |
| 20260506100237 | 61 | 13 | 2.6 | 3.5 | 0.00 | 0.00 | 0.00 | 44 | 1016.2 |
| 20260506095736 | 61 | 8 | 2.6 | 3.5 | 0.00 | 0.00 | 0.00 | 43 | 1016.3 |
| 20260506095232 | 61 | 13 | 2.6 | 2.6 | 0.00 | 0.00 | 0.00 | 44 | 1016.2 |
| 20260506094729 | 61 | 11 | 2.6 | 3.5 | 0.00 | 0.00 | 0.00 | 44 | 1016.3 |
| 20260506094227 | 60 | 15 | 2.6 | 3.5 | 0.00 | 0.00 | 0.00 | 44 | 1016.3 |
| 20260506093726 | 60 | 24 | 2.6 | 3.5 | 0.00 | 0.00 | 0.00 | 45 | 1016.5 |
| 20260506093222 | 60 | 45 | 3.5 | 4.3 | 0.00 | 0.00 | 0.00 | 45 | 1016.5 |
| 20260506092720 | 60 | 30 | 3.5 | 4.3 | 0.00 | 0.00 | 0.00 | 45 | 1016.4 |
| 20260506092218 | 60 | 29 | 2.6 | 2.6 | 0.00 | 0.00 | 0.00 | 47 | 1016.2 |
| 20260506091715 | 60 | 43 | 1.7 | 2.6 | 0.00 | 0.00 | 0.00 | 48 | 1016.3 |
| 20260506091212 | 60 | 18 | 1.7 | 3.5 | 0.00 | 0.00 | 0.00 | 49 | 1016.3 |
| 20260506090710 | 61 | 7 | 3.5 | 4.3 | 0.00 | 0.00 | 0.00 | 48 | 1016.4 |
| 20260506090206 | 61 | 18 | 2.6 | 3.5 | 0.00 | 0.00 | 0.00 | 46 | 1016.3 |
| 20260506085704 | 61 | 17 | 4.3 | 4.3 | 0.00 | 0.00 | 0.00 | 45 | 1016.2 |
| 20260506085159 | 61 | 25 | 3.5 | 4.3 | 0.00 | 0.00 | 0.00 | 45 | 1016.2 |
| 20260506084657 | 61 | 20 | 2.6 | 3.5 | 0.00 | 0.00 | 0.00 | 46 | 1016.1 |
| 20260506084153 | 61 | 40 | 1.7 | 2.6 | 0.00 | 0.00 | 0.00 | 44 | 1016.0 |
| 20260506083650 | 61 | 28 | 1.7 | 2.6 | 0.00 | 0.00 | 0.00 | 45 | 1016.1 |
| 20260506083148 | 61 | 24 | 1.7 | 3.5 | 0.00 | 0.00 | 0.00 | 45 | 1015.9 |
| 20260506082644 | 61 | 10 | 1.7 | 1.7 | 0.00 | 0.00 | 0.00 | 43 | 1016.1 |
| 20260506082139 | 62 | 32 | 0.0 | 1.7 | 0.00 | 0.00 | 0.00 | 43 | 1016.0 |
| 20260506081638 | 63 | 30 | 1.7 | 2.6 | 0.00 | 0.00 | 0.00 | 42 | 1016.0 |
| 20260506081135 | 62 | 16 | 2.6 | 3.5 | 0.00 | 0.00 | 0.00 | 46 | 1016.1 |
| 20260506080633 | 62 | 4 | 2.6 | 3.5 | 0.00 | 0.00 | 0.00 | 44 | 1016.0 |
| 20260506080129 | 64 | 18 | 1.7 | 2.6 | 0.00 | 0.00 | 0.00 | 42 | 1016.1 |
| 20260506073113 | 64 | 44 | 4.3 | 5.2 | 0.00 | 0.00 | 0.00 | 40 | 1016.0 |
| 20260506072609 | 64 | 23 | 2.6 | 4.3 | 0.00 | 0.00 | 0.00 | 41 | 1015.8 |
| 20260506072108 | 64 | 26 | 4.3 | 4.3 | 0.00 | 0.00 | 0.00 | 40 | 1016.1 |
| 20260506071605 | 65 | 312 | 1.7 | 1.7 | 0.00 | 0.00 | 0.00 | 39 | 1015.9 |
| 20260506071103 | 65 | 7 | 0.9 | 1.7 | 0.00 | 0.00 | 0.00 | 39 | 1016.1 |
| 20260506070600 | 65 | 262 | 0.9 | 1.7 | 0.00 | 0.00 | 0.00 | 39 | 1016.0 |
| 20260506062034 | 67 | 272 | 4.3 | 5.2 | 0.00 | 0.00 | 0.00 | 37 | 1015.8 |
| 20260506061529 | 67 | 262 | 2.6 | 4.3 | 0.00 | 0.00 | 0.00 | 36 | 1015.7 |
| 20260506061027 | 67 | 262 | 1.7 | 5.2 | 0.00 | 0.00 | 0.00 | 36 | 1015.8 |
| 20260506060526 | 67 | 224 | 2.6 | 6.1 | 0.00 | 0.00 | 0.00 | 36 | 1015.7 |